| time (UTC) | temp F | wind direction | speed MPH | gust MPH | rain 1hr in | rain 24hr in | rain mn in | humidity % | barometer mb |
| 20260509111655 | 55 | 190 | 2.0 | 12.0 | 0.00 | 0.00 | 0.35 | 96 | 1006.0 |
| 20260509111155 | 54 | 194 | 1.0 | 12.0 | 0.00 | 0.00 | 0.35 | 96 | 1006.0 |
| 20260509110654 | 54 | 190 | 1.0 | 12.0 | 0.00 | 0.00 | 0.35 | 96 | 1005.9 |
| 20260509105121 | 54 | 212 | 3.0 | 12.0 | 0.00 | 0.00 | 0.35 | 96 | 1005.7 |
| 20260509104108 | 54 | 225 | 1.0 | 12.0 | 0.00 | 0.00 | 0.35 | 96 | 1005.9 |
| 20260509103051 | 54 | 215 | 2.0 | 12.0 | 0.00 | 0.00 | 0.35 | 96 | 1005.5 |
| 20260509101519 | 55 | 175 | 2.0 | 12.0 | 0.00 | 0.00 | 0.35 | 96 | 1005.6 |
| 20260509100503 | 55 | 167 | 2.0 | 12.0 | 0.02 | 0.00 | 0.35 | 96 | 1005.6 |
| 20260509100002 | 55 | 196 | 2.0 | 12.0 | 0.02 | 0.00 | 0.35 | 96 | 1005.3 |
| 20260509095502 | 55 | 214 | 1.0 | 12.0 | 0.03 | 0.00 | 0.35 | 96 | 1005.6 |
| 20260509095001 | 55 | 195 | 1.0 | 12.0 | 0.03 | 0.00 | 0.35 | 96 | 1005.8 |
| 20260509094500 | 55 | 206 | 3.0 | 12.0 | 0.03 | 0.00 | 0.35 | 96 | 1005.7 |
| 20260509093959 | 55 | 208 | 2.0 | 12.0 | 0.03 | 0.00 | 0.35 | 96 | 1005.9 |
| 20260509093458 | 55 | 209 | 3.0 | 12.0 | 0.03 | 0.00 | 0.35 | 96 | 1006.1 |
| 20260509092957 | 55 | 185 | 3.0 | 12.0 | 0.04 | 0.00 | 0.35 | 96 | 1005.9 |
| 20260509092456 | 55 | 210 | 4.0 | 12.0 | 0.04 | 0.00 | 0.35 | 96 | 1006.1 |
| 20260509091956 | 55 | 191 | 3.0 | 12.0 | 0.04 | 0.00 | 0.35 | 96 | 1006.1 |
| 20260509091456 | 55 | 211 | 3.0 | 12.0 | 0.04 | 0.00 | 0.35 | 96 | 1006.4 |
| 20260509090955 | 55 | 212 | 4.0 | 12.0 | 0.04 | 0.00 | 0.35 | 96 | 1006.1 |
| 20260509085939 | 55 | 191 | 3.0 | 12.0 | 0.02 | 0.00 | 0.32 | 96 | 1006.0 |
| 20260509084922 | 55 | 207 | 2.0 | 12.0 | 0.01 | 0.00 | 0.31 | 96 | 1006.3 |
| 20260509084421 | 55 | 202 | 5.0 | 12.0 | 0.01 | 0.00 | 0.31 | 96 | 1006.3 |
| 20260509083921 | 55 | 198 | 3.0 | 12.0 | 0.01 | 0.00 | 0.31 | 96 | 1006.1 |
| 20260509083421 | 55 | 194 | 4.0 | 12.0 | 0.01 | 0.00 | 0.31 | 96 | 1006.3 |
| 20260509082921 | 55 | 184 | 3.0 | 12.0 | 0.00 | 0.00 | 0.30 | 96 | 1006.0 |
| 20260509082420 | 55 | 184 | 3.0 | 12.0 | 0.00 | 0.00 | 0.30 | 96 | 1006.0 |
| 20260509081919 | 55 | 192 | 3.0 | 12.0 | 0.01 | 0.00 | 0.30 | 96 | 1006.0 |
| 20260509081419 | 55 | 187 | 2.0 | 12.0 | 0.01 | 0.00 | 0.30 | 96 | 1006.2 |
| 20260509080919 | 55 | 194 | 3.0 | 12.0 | 0.01 | 0.00 | 0.30 | 96 | 1006.0 |
| 20260509080418 | 55 | 185 | 2.0 | 12.0 | 0.01 | 0.00 | 0.30 | 96 | 1006.1 |
| 20260509075917 | 55 | 202 | 2.0 | 12.0 | 0.01 | 0.00 | 0.30 | 96 | 1006.2 |
| 20260509075417 | 55 | 185 | 2.0 | 12.0 | 0.02 | 0.00 | 0.30 | 96 | 1006.2 |
| 20260509074402 | 55 | 180 | 3.0 | 12.0 | 0.02 | 0.00 | 0.30 | 96 | 1006.4 |
| 20260509073901 | 55 | 179 | 3.0 | 12.0 | 0.03 | 0.00 | 0.30 | 96 | 1006.3 |
| 20260509073400 | 55 | 180 | 2.0 | 12.0 | 0.03 | 0.00 | 0.30 | 96 | 1005.9 |
| 20260509072859 | 55 | 190 | 1.0 | 12.0 | 0.03 | 0.00 | 0.30 | 96 | 1006.2 |
| 20260509072359 | 55 | 214 | 0.0 | 12.0 | 0.03 | 0.00 | 0.30 | 95 | 1006.2 |
| 20260509071344 | 55 | 213 | 1.0 | 12.0 | 0.03 | 0.00 | 0.29 | 96 | 1006.6 |
| 20260509070843 | 55 | 204 | 2.0 | 12.0 | 0.03 | 0.00 | 0.29 | 96 | 1006.6 |
| 20260509065828 | 56 | 212 | 0.0 | 12.0 | 0.03 | 0.00 | 0.29 | 96 | 1006.7 |
| 20260509064812 | 56 | 207 | 1.0 | 12.0 | 0.05 | 0.00 | 0.28 | 96 | 1006.8 |
| 20260509064312 | 56 | 221 | 1.0 | 12.0 | 0.06 | 0.00 | 0.28 | 96 | 1006.5 |
| 20260509063812 | 56 | 227 | 3.0 | 12.0 | 0.07 | 0.00 | 0.27 | 96 | 1006.9 |
| 20260509063312 | 56 | 221 | 2.0 | 12.0 | 0.09 | 0.00 | 0.27 | 96 | 1007.0 |
| 20260509062812 | 56 | 215 | 3.0 | 12.0 | 0.09 | 0.00 | 0.27 | 96 | 1007.1 |
| 20260509062312 | 56 | 219 | 5.0 | 12.0 | 0.10 | 0.00 | 0.27 | 96 | 1007.2 |
| 20260509061811 | 56 | 215 | 4.0 | 12.0 | 0.09 | 0.00 | 0.26 | 96 | 1007.4 |
| 20260509061311 | 56 | 210 | 5.0 | 12.0 | 0.10 | 0.00 | 0.26 | 96 | 1007.3 |
| 20260509060255 | 56 | 196 | 3.0 | 12.0 | 0.11 | 0.00 | 0.26 | 96 | 1007.5 |
| 20260509055755 | 56 | 206 | 4.0 | 12.0 | 0.13 | 0.00 | 0.26 | 96 | 1007.6 |
| 20260509055255 | 56 | 213 | 4.0 | 12.0 | 0.13 | 0.00 | 0.25 | 96 | 1008.5 |
| 20260509054754 | 56 | 204 | 4.0 | 12.0 | 0.11 | 0.00 | 0.22 | 96 | 1009.2 |
| 20260509054253 | 56 | 192 | 5.0 | 12.0 | 0.11 | 0.00 | 0.21 | 96 | 1009.2 |
| 20260509053752 | 56 | 201 | 4.0 | 12.0 | 0.11 | 0.00 | 0.20 | 96 | 1007.6 |
| 20260509053251 | 56 | 192 | 2.0 | 12.0 | 0.09 | 0.00 | 0.18 | 96 | 1007.7 |
| 20260509052751 | 56 | 197 | 4.0 | 12.0 | 0.10 | 0.00 | 0.18 | 96 | 1007.7 |
| 20260509051736 | 56 | 193 | 3.0 | 12.0 | 0.11 | 0.00 | 0.17 | 96 | 1007.5 |
| 20260509051236 | 56 | 190 | 4.0 | 12.0 | 0.12 | 0.00 | 0.17 | 96 | 1007.8 |
| 20260509050220 | 56 | 189 | 3.0 | 12.0 | 0.11 | 0.00 | 0.14 | 96 | 1007.6 |
| 20260509045719 | 56 | 190 | 4.0 | 12.0 | 0.11 | 0.00 | 0.13 | 96 | 1007.5 |
| 20260509045218 | 56 | 203 | 3.0 | 12.0 | 0.10 | 0.00 | 0.11 | 96 | 1007.7 |
| 20260509044718 | 56 | 191 | 3.0 | 12.0 | 0.10 | 0.00 | 0.11 | 96 | 1009.3 |
| 20260509044217 | 56 | 194 | 2.0 | 12.0 | 0.09 | 0.00 | 0.10 | 95 | 1009.6 |
| 20260509043716 | 56 | 181 | 3.0 | 12.0 | 0.10 | 0.00 | 0.10 | 95 | 1009.2 |
| 20260509042700 | 56 | 203 | 4.0 | 12.0 | 0.07 | 0.00 | 0.07 | 95 | 1009.6 |
| 20260509041644 | 56 | 171 | 4.0 | 12.0 | 0.09 | 0.00 | 0.06 | 95 | 1009.2 |
| 20260509040628 | 56 | 199 | 3.0 | 12.0 | 0.06 | 0.00 | 0.03 | 95 | 1007.7 |
| 20260509040127 | 56 | 173 | 3.0 | 12.0 | 0.07 | 0.00 | 0.03 | 95 | 1007.8 |
| 20260509035627 | 56 | 182 | 2.0 | 12.0 | 0.07 | 0.00 | 0.02 | 95 | 1007.7 |
| 20260509035127 | 56 | 195 | 3.0 | 12.0 | 0.07 | 0.00 | 0.02 | 95 | 1007.7 |
| 20260509034112 | 56 | 177 | 3.0 | 12.0 | 0.11 | 0.00 | 0.01 | 95 | 1007.6 |
| 20260509033612 | 56 | 185 | 2.0 | 12.0 | 0.13 | 0.00 | 0.01 | 95 | 1007.8 |
| 20260509032555 | 56 | 185 | 3.0 | 12.0 | 0.15 | 0.00 | 0.54 | 94 | 1007.8 |
| 20260509032054 | 56 | 185 | 3.0 | 12.0 | 0.15 | 0.00 | 0.53 | 94 | 1007.8 |
| 20260509031553 | 56 | 181 | 3.0 | 12.0 | 0.17 | 0.00 | 0.53 | 94 | 1007.6 |
| 20260509030536 | 56 | 185 | 3.0 | 12.0 | 0.17 | 0.00 | 0.51 | 94 | 1008.3 |
| 20260509030035 | 56 | 183 | 4.0 | 12.0 | 0.17 | 0.00 | 0.50 | 94 | 1007.8 |
| 20260509025535 | 56 | 179 | 3.0 | 12.0 | 0.17 | 0.00 | 0.50 | 94 | 1008.2 |
| 20260509025034 | 56 | 187 | 3.0 | 12.0 | 0.15 | 0.00 | 0.48 | 94 | 1008.4 |
| 20260509024017 | 56 | 201 | 5.0 | 12.0 | 0.14 | 0.00 | 0.45 | 94 | 1007.9 |
| 20260509023517 | 56 | 213 | 3.0 | 12.0 | 0.13 | 0.00 | 0.43 | 94 | 1007.8 |
| 20260509023017 | 56 | 208 | 4.0 | 12.0 | 0.11 | 0.00 | 0.40 | 94 | 1008.0 |
| 20260509022517 | 56 | 211 | 3.0 | 12.0 | 0.10 | 0.00 | 0.39 | 94 | 1007.7 |
| 20260509022017 | 56 | 193 | 3.0 | 12.0 | 0.09 | 0.00 | 0.38 | 94 | 1007.9 |
| 20260509021517 | 56 | 203 | 4.0 | 12.0 | 0.07 | 0.00 | 0.36 | 94 | 1007.5 |
| 20260509021017 | 56 | 198 | 3.0 | 12.0 | 0.07 | 0.00 | 0.35 | 94 | 1008.0 |
| 20260509020519 | 56 | 205 | 3.0 | 12.0 | 0.09 | 0.00 | 0.35 | 94 | 1007.9 |
| 20260509020017 | 56 | 199 | 5.0 | 12.0 | 0.07 | 0.00 | 0.34 | 93 | 1008.0 |
| 20260509015001 | 56 | 176 | 4.0 | 12.0 | 0.07 | 0.00 | 0.31 | 93 | 1007.5 |
| 20260509014500 | 56 | 180 | 3.0 | 12.0 | 0.06 | 0.00 | 0.30 | 93 | 1007.6 |
| 20260509013959 | 57 | 191 | 4.0 | 12.0 | 0.07 | 0.00 | 0.30 | 93 | 1007.9 |
| 20260509013458 | 57 | 202 | 2.0 | 12.0 | 0.07 | 0.00 | 0.30 | 93 | 1007.3 |
| 20260509012958 | 57 | 219 | 4.0 | 12.0 | 0.09 | 0.00 | 0.29 | 93 | 1007.8 |
| 20260509012458 | 57 | 216 | 2.0 | 12.0 | 0.09 | 0.00 | 0.29 | 93 | 1007.5 |
| 20260509011441 | 56 | 199 | 4.0 | 12.0 | 0.11 | 0.00 | 0.28 | 93 | 1007.3 |
| 20260509010941 | 56 | 202 | 3.0 | 12.0 | 0.12 | 0.00 | 0.28 | 93 | 1007.5 |
| 20260509005924 | 56 | 217 | 2.0 | 12.0 | 0.11 | 0.00 | 0.26 | 93 | 1007.4 |
| 20260509005423 | 56 | 206 | 3.0 | 12.0 | 0.11 | 0.00 | 0.26 | 93 | 1007.3 |
| 20260509004922 | 56 | 201 | 3.0 | 12.0 | 0.11 | 0.00 | 0.25 | 93 | 1007.2 |
| 20260509004421 | 56 | 232 | 3.0 | 12.0 | 0.11 | 0.00 | 0.23 | 93 | 1007.3 |
| 20260509003920 | 56 | 219 | 3.0 | 12.0 | 0.11 | 0.00 | 0.23 | 93 | 1007.2 |
| 20260509003420 | 56 | 213 | 4.0 | 12.0 | 0.11 | 0.00 | 0.22 | 92 | 1007.4 |
| 20260509002919 | 56 | 196 | 3.0 | 12.0 | 0.12 | 0.00 | 0.21 | 92 | 1007.3 |
| 20260509002419 | 56 | 228 | 2.0 | 12.0 | 0.12 | 0.00 | 0.20 | 92 | 1007.5 |
| 20260509001919 | 56 | 221 | 1.0 | 12.0 | 0.12 | 0.00 | 0.19 | 92 | 1007.7 |
| 20260509000902 | 56 | 224 | 2.0 | 12.0 | 0.10 | 0.00 | 0.15 | 92 | 1007.3 |
| 20260509000403 | 56 | 228 | 2.0 | 12.0 | 0.09 | 0.00 | 0.14 | 92 | 1007.4 |
| 20260508235902 | 56 | 212 | 1.0 | 12.0 | 0.08 | 0.00 | 0.14 | 91 | 1007.6 |
| 20260508235402 | 57 | 214 | 2.0 | 12.0 | 0.09 | 0.00 | 0.14 | 91 | 1007.7 |
| 20260508234902 | 57 | 193 | 2.0 | 12.0 | 0.10 | 0.00 | 0.14 | 91 | 1007.5 |
| 20260508234402 | 57 | 187 | 2.0 | 12.0 | 0.10 | 0.00 | 0.13 | 91 | 1006.9 |
| 20260508233346 | 57 | 231 | 1.0 | 12.0 | 0.09 | 0.00 | 0.11 | 90 | 1007.4 |
| 20260508232845 | 57 | 242 | 2.0 | 12.0 | 0.09 | 0.00 | 0.10 | 90 | 1007.8 |
| 20260508232345 | 57 | 258 | 1.0 | 12.0 | 0.06 | 0.00 | 0.07 | 90 | 1007.9 |
| 20260508231844 | 57 | 272 | 0.0 | 12.0 | 0.06 | 0.00 | 0.07 | 90 | 1007.4 |
| 20260508230313 | 57 | 304 | 0.0 | 12.0 | 0.05 | 0.00 | 0.05 | 89 | 1007.7 |
| 20260508225812 | 57 | 304 | 0.0 | 12.0 | 0.05 | 0.00 | 0.05 | 88 | 1007.5 |
| 20260508225311 | 58 | 304 | 0.0 | 12.0 | 0.05 | 0.00 | 0.05 | 88 | 1007.4 |
| 20260508224255 | 58 | 304 | 1.0 | 12.0 | 0.03 | 0.00 | 0.03 | 86 | 1007.6 |
| 20260508223754 | 58 | 298 | 2.0 | 12.0 | 0.03 | 0.00 | 0.03 | 85 | 1008.0 |
| 20260508223254 | 59 | 315 | 3.0 | 12.0 | 0.02 | 0.00 | 0.02 | 84 | 1007.7 |
| 20260508222754 | 59 | 305 | 0.0 | 12.0 | 0.02 | 0.00 | 0.02 | 83 | 1007.7 |
| 20260508222253 | 60 | 310 | 2.0 | 12.0 | 0.01 | 0.00 | 0.01 | 81 | 1007.9 |
| 20260508221754 | 60 | 297 | 2.0 | 12.0 | 0.01 | 0.00 | 0.01 | 79 | 1007.5 |
| 20260508221252 | 61 | 280 | 2.0 | 12.0 | 0.00 | 0.00 | 0.00 | 76 | 1007.5 |
| 20260508220752 | 61 | 288 | 3.0 | 12.0 | 0.00 | 0.00 | 0.00 | 71 | 1007.2 |
| 20260508215736 | 62 | 246 | 4.0 | 12.0 | 0.00 | 0.00 | 0.00 | 69 | 1007.2 |
| 20260508215236 | 62 | 234 | 4.0 | 12.0 | 0.00 | 0.00 | 0.00 | 67 | 1007.4 |
| 20260508214736 | 63 | 234 | 3.0 | 12.0 | 0.00 | 0.00 | 0.00 | 65 | 1007.1 |
| 20260508214236 | 63 | 234 | 5.0 | 19.0 | 0.00 | 0.00 | 0.00 | 63 | 1007.2 |
| 20260508213222 | 64 | 213 | 6.0 | 15.0 | 0.00 | 0.00 | 0.00 | 61 | 1007.1 |
| 20260508212205 | 64 | 205 | 3.0 | 12.0 | 0.00 | 0.00 | 0.00 | 62 | 1006.8 |
| 20260508211704 | 65 | 215 | 3.0 | 12.0 | 0.00 | 0.00 | 0.00 | 61 | 1006.6 |
| 20260508211204 | 65 | 220 | 5.0 | 12.0 | 0.00 | 0.00 | 0.00 | 59 | 1006.8 |
| 20260508210704 | 65 | 218 | 5.0 | 12.0 | 0.00 | 0.00 | 0.00 | 58 | 1007.0 |
| 20260508210203 | 66 | 211 | 4.0 | 12.0 | 0.00 | 0.00 | 0.00 | 57 | 1006.7 |
| 20260508205704 | 66 | 192 | 3.0 | 12.0 | 0.00 | 0.00 | 0.00 | 56 | 1006.9 |
| 20260508205204 | 66 | 206 | 3.0 | 12.0 | 0.00 | 0.00 | 0.00 | 55 | 1006.7 |
| 20260508204704 | 66 | 200 | 3.0 | 12.0 | 0.00 | 0.00 | 0.00 | 55 | 1006.6 |
| 20260508204204 | 66 | 205 | 4.0 | 12.0 | 0.00 | 0.00 | 0.00 | 55 | 1007.0 |
| 20260508203703 | 66 | 207 | 4.0 | 12.0 | 0.00 | 0.00 | 0.00 | 55 | 1006.8 |
| 20260508202647 | 66 | 202 | 2.0 | 12.0 | 0.00 | 0.00 | 0.00 | 55 | 1006.8 |
| 20260508202148 | 67 | 200 | 3.0 | 12.0 | 0.00 | 0.00 | 0.00 | 55 | 1007.0 |
| 20260508201133 | 67 | 216 | 2.0 | 12.0 | 0.00 | 0.00 | 0.00 | 55 | 1007.3 |
| 20260508200633 | 66 | 201 | 3.0 | 12.0 | 0.00 | 0.00 | 0.00 | 55 | 1007.2 |
| 20260508200133 | 66 | 218 | 2.0 | 12.0 | 0.00 | 0.00 | 0.00 | 55 | 1007.2 |
| 20260508195631 | 66 | 207 | 2.0 | 12.0 | 0.00 | 0.00 | 0.00 | 55 | 1007.2 |
| 20260508194616 | 66 | 200 | 2.0 | 12.0 | 0.00 | 0.00 | 0.00 | 55 | 1007.7 |
| 20260508193600 | 66 | 206 | 3.0 | 12.0 | 0.00 | 0.00 | 0.00 | 55 | 1007.8 |
| 20260508192029 | 66 | 193 | 2.0 | 12.0 | 0.00 | 0.00 | 0.00 | 54 | 1008.1 |
| 20260508191014 | 66 | 208 | 4.0 | 12.0 | 0.00 | 0.00 | 0.00 | 53 | 1008.3 |
| 20260508185959 | 66 | 208 | 5.0 | 12.0 | 0.00 | 0.00 | 0.00 | 53 | 1008.3 |
| 20260508185458 | 66 | 214 | 4.0 | 12.0 | 0.00 | 0.00 | 0.00 | 53 | 1008.4 |
| 20260508184958 | 66 | 202 | 4.0 | 12.0 | 0.00 | 0.00 | 0.00 | 54 | 1008.5 |
| 20260508184458 | 66 | 216 | 5.0 | 12.0 | 0.00 | 0.00 | 0.00 | 54 | 1008.3 |
| 20260508183957 | 66 | 191 | 4.0 | 12.0 | 0.00 | 0.00 | 0.00 | 53 | 1008.2 |
| 20260508183456 | 66 | 193 | 4.0 | 15.0 | 0.00 | 0.00 | 0.00 | 54 | 1008.6 |
| 20260508182956 | 66 | 201 | 4.0 | 15.0 | 0.00 | 0.00 | 0.00 | 53 | 1008.7 |
| 20260508182455 | 66 | 199 | 5.0 | 15.0 | 0.00 | 0.00 | 0.00 | 53 | 1008.4 |
| 20260508181955 | 66 | 199 | 5.0 | 15.0 | 0.00 | 0.00 | 0.00 | 52 | 1008.6 |
| 20260508181455 | 66 | 193 | 4.0 | 15.0 | 0.00 | 0.00 | 0.00 | 52 | 1008.7 |
| 20260508180955 | 66 | 204 | 5.0 | 15.0 | 0.00 | 0.00 | 0.00 | 52 | 1008.5 |
| 20260508180454 | 66 | 202 | 5.0 | 19.0 | 0.00 | 0.00 | 0.00 | 51 | 1008.7 |
| 20260508175954 | 67 | 212 | 8.0 | 19.0 | 0.00 | 0.00 | 0.00 | 50 | 1008.6 |
| 20260508175454 | 67 | 216 | 8.0 | 14.0 | 0.00 | 0.00 | 0.00 | 50 | 1008.8 |
| 20260508174954 | 68 | 215 | 8.0 | 19.0 | 0.00 | 0.00 | 0.00 | 49 | 1008.7 |
| 20260508174454 | 67 | 223 | 9.0 | 19.0 | 0.00 | 0.00 | 0.00 | 49 | 1008.6 |
| 20260508173954 | 67 | 213 | 7.0 | 19.0 | 0.00 | 0.00 | 0.00 | 50 | 1008.7 |
| 20260508173454 | 67 | 202 | 8.0 | 19.0 | 0.00 | 0.00 | 0.00 | 49 | 1009.0 |
| 20260508172953 | 67 | 228 | 7.0 | 15.0 | 0.00 | 0.00 | 0.00 | 49 | 1009.1 |
| 20260508171937 | 68 | 210 | 7.0 | 14.0 | 0.00 | 0.00 | 0.00 | 48 | 1009.1 |
| 20260508171436 | 68 | 209 | 5.0 | 15.0 | 0.00 | 0.00 | 0.00 | 50 | 1009.4 |
| 20260508170935 | 68 | 189 | 6.0 | 15.0 | 0.00 | 0.00 | 0.00 | 50 | 1009.5 |
| 20260508170434 | 67 | 178 | 6.0 | 13.0 | 0.00 | 0.00 | 0.00 | 53 | 1009.7 |
| 20260508165934 | 66 | 214 | 6.0 | 13.0 | 0.00 | 0.00 | 0.00 | 52 | 1009.6 |
| 20260508165434 | 66 | 200 | 6.0 | 13.0 | 0.00 | 0.00 | 0.00 | 53 | 1009.6 |
| 20260508164933 | 65 | 218 | 7.0 | 13.0 | 0.00 | 0.00 | 0.00 | 52 | 1009.7 |
| 20260508164432 | 65 | 198 | 6.0 | 15.0 | 0.00 | 0.00 | 0.00 | 53 | 1009.8 |
| 20260508162900 | 65 | 215 | 7.0 | 13.0 | 0.00 | 0.00 | 0.00 | 53 | 1010.1 |
| 20260508162400 | 65 | 206 | 6.0 | 14.0 | 0.00 | 0.00 | 0.00 | 53 | 1010.4 |
| 20260508161344 | 65 | 203 | 5.0 | 12.0 | 0.00 | 0.00 | 0.00 | 53 | 1009.9 |
| 20260508155814 | 65 | 199 | 5.0 | 12.0 | 0.00 | 0.00 | 0.00 | 52 | 1010.1 |
| 20260508155314 | 65 | 209 | 6.0 | 12.0 | 0.00 | 0.00 | 0.00 | 52 | 1010.6 |
| 20260508154814 | 66 | 221 | 7.0 | 12.0 | 0.00 | 0.00 | 0.00 | 51 | 1010.5 |
| 20260508154314 | 66 | 226 | 5.0 | 14.0 | 0.00 | 0.00 | 0.00 | 51 | 1010.3 |
| 20260508153813 | 66 | 215 | 7.0 | 14.0 | 0.00 | 0.00 | 0.00 | 51 | 1010.4 |
| 20260508153313 | 66 | 225 | 5.0 | 15.0 | 0.00 | 0.00 | 0.00 | 51 | 1010.3 |
| 20260508152813 | 66 | 224 | 9.0 | 19.0 | 0.00 | 0.00 | 0.00 | 49 | 1010.5 |
| 20260508152313 | 66 | 216 | 9.0 | 19.0 | 0.00 | 0.00 | 0.00 | 48 | 1010.3 |
| 20260508151257 | 67 | 219 | 7.0 | 14.0 | 0.00 | 0.00 | 0.00 | 49 | 1010.7 |
| 20260508150757 | 66 | 229 | 7.0 | 15.0 | 0.00 | 0.00 | 0.00 | 50 | 1010.4 |
| 20260508145225 | 65 | 211 | 6.0 | 14.0 | 0.00 | 0.00 | 0.00 | 51 | 1010.8 |
| 20260508144724 | 65 | 230 | 5.0 | 14.0 | 0.00 | 0.00 | 0.00 | 52 | 1010.6 |
| 20260508144224 | 65 | 215 | 8.0 | 14.0 | 0.00 | 0.00 | 0.00 | 51 | 1010.7 |
| 20260508143723 | 64 | 223 | 6.0 | 12.0 | 0.00 | 0.00 | 0.00 | 52 | 1010.8 |
| 20260508143223 | 64 | 230 | 4.0 | 14.0 | 0.00 | 0.00 | 0.00 | 53 | 1010.7 |
| 20260508142723 | 63 | 232 | 6.0 | 14.0 | 0.00 | 0.00 | 0.00 | 53 | 1011.0 |
| 20260508142222 | 63 | 219 | 8.0 | 14.0 | 0.00 | 0.00 | 0.00 | 52 | 1010.8 |
| 20260508141206 | 63 | 225 | 8.0 | 16.0 | 0.00 | 0.00 | 0.00 | 53 | 1011.1 |
| 20260508140706 | 62 | 221 | 5.0 | 13.0 | 0.00 | 0.00 | 0.00 | 54 | 1010.9 |
| 20260508140205 | 62 | 211 | 5.0 | 12.0 | 0.00 | 0.00 | 0.00 | 54 | 1011.1 |
| 20260508135705 | 61 | 213 | 5.0 | 12.0 | 0.00 | 0.00 | 0.00 | 54 | 1011.2 |
| 20260508135204 | 61 | 218 | 7.0 | 12.0 | 0.00 | 0.00 | 0.00 | 55 | 1011.1 |
| 20260508134704 | 60 | 223 | 5.0 | 12.0 | 0.00 | 0.00 | 0.00 | 55 | 1011.0 |
| 20260508134204 | 60 | 210 | 5.0 | 12.0 | 0.00 | 0.00 | 0.00 | 55 | 1011.0 |
| 20260508133704 | 59 | 202 | 4.0 | 13.0 | 0.00 | 0.00 | 0.00 | 56 | 1011.1 |
| 20260508133204 | 59 | 208 | 5.0 | 13.0 | 0.00 | 0.00 | 0.00 | 57 | 1011.2 |
| 20260508132703 | 58 | 208 | 5.0 | 13.0 | 0.00 | 0.00 | 0.00 | 58 | 1011.2 |
| 20260508132203 | 58 | 222 | 6.0 | 13.0 | 0.00 | 0.00 | 0.00 | 58 | 1011.2 |
| 20260508131703 | 57 | 201 | 4.0 | 11.0 | 0.00 | 0.00 | 0.00 | 59 | 1011.3 |
| 20260508131203 | 57 | 215 | 5.0 | 11.0 | 0.00 | 0.00 | 0.00 | 59 | 1011.1 |
| 20260508130703 | 56 | 208 | 3.0 | 11.0 | 0.00 | 0.00 | 0.00 | 60 | 1011.0 |
| 20260508130202 | 56 | 201 | 5.0 | 11.0 | 0.00 | 0.00 | 0.00 | 60 | 1011.0 |
| 20260508125702 | 56 | 192 | 4.0 | 11.0 | 0.00 | 0.00 | 0.00 | 61 | 1010.9 |
| 20260508125201 | 55 | 207 | 4.0 | 11.0 | 0.00 | 0.00 | 0.00 | 61 | 1010.9 |
| 20260508124701 | 55 | 197 | 4.0 | 11.0 | 0.00 | 0.00 | 0.00 | 62 | 1011.1 |
| 20260508124200 | 54 | 194 | 5.0 | 11.0 | 0.00 | 0.00 | 0.00 | 62 | 1011.2 |
| 20260508123700 | 54 | 205 | 4.0 | 11.0 | 0.00 | 0.00 | 0.00 | 62 | 1011.1 |
| 20260508123200 | 54 | 206 | 4.0 | 11.0 | 0.00 | 0.00 | 0.00 | 63 | 1011.1 |
| 20260508122700 | 53 | 208 | 3.0 | 11.0 | 0.00 | 0.00 | 0.00 | 64 | 1011.1 |
| 20260508122159 | 53 | 205 | 1.0 | 11.0 | 0.00 | 0.00 | 0.00 | 64 | 1011.0 |
| 20260508121659 | 53 | 175 | 2.0 | 11.0 | 0.00 | 0.00 | 0.00 | 64 | 1011.4 |
| 20260508121158 | 52 | 194 | 3.0 | 11.0 | 0.00 | 0.00 | 0.00 | 64 | 1011.0 |
| 20260508120657 | 52 | 183 | 4.0 | 11.0 | 0.00 | 0.00 | 0.00 | 65 | 1011.3 |
| 20260508120156 | 52 | 179 | 3.0 | 11.0 | 0.00 | 0.00 | 0.00 | 65 | 1010.9 |
| 20260508115656 | 51 | 193 | 4.0 | 11.0 | 0.00 | 0.00 | 0.00 | 65 | 1011.1 |
| 20260508115155 | 51 | 185 | 3.0 | 11.0 | 0.00 | 0.00 | 0.00 | 65 | 1011.1 |
| 20260508114654 | 51 | 184 | 3.0 | 11.0 | 0.00 | 0.00 | 0.00 | 65 | 1011.0 |
| 20260508114154 | 51 | 190 | 4.0 | 11.0 | 0.00 | 0.00 | 0.00 | 66 | 1011.1 |
| 20260508113653 | 50 | 187 | 3.0 | 11.0 | 0.00 | 0.00 | 0.00 | 66 | 1010.9 |
| 20260508113153 | 50 | 181 | 3.0 | 11.0 | 0.00 | 0.00 | 0.00 | 66 | 1011.1 |
| 20260508112653 | 50 | 185 | 3.0 | 11.0 | 0.00 | 0.00 | 0.00 | 66 | 1010.8 |
| 20260508112153 | 50 | 193 | 3.0 | 11.0 | 0.00 | 0.00 | 0.00 | 66 | 1010.7 |